| time (UTC) | temp F | wind direction | speed MPH | gust MPH | rain 1hr in | rain 24hr in | rain mn in | humidity % | barometer mb |
| 20260506095517 | 55 | 166 | 2.0 | 7.0 | 0.00 | 0.00 | 0.00 | 90 | 1010.1 |
| 20260506095017 | 55 | 219 | 1.0 | 7.0 | 0.00 | 0.00 | 0.00 | 90 | 1010.2 |
| 20260506094531 | 55 | 234 | 2.0 | 7.0 | 0.00 | 0.00 | 0.00 | 90 | 1010.1 |
| 20260506094016 | 55 | 208 | 2.0 | 7.0 | 0.00 | 0.00 | 0.00 | 90 | 1010.0 |
| 20260506093516 | 55 | 166 | 2.0 | 7.0 | 0.00 | 0.00 | 0.00 | 90 | 1010.0 |
| 20260506093034 | 55 | 247 | 2.0 | 7.0 | 0.00 | 0.00 | 0.00 | 90 | 1010.0 |
| 20260506092517 | 55 | 219 | 3.0 | 7.0 | 0.00 | 0.00 | 0.00 | 90 | 1010.1 |
| 20260506092016 | 55 | 232 | 2.0 | 7.0 | 0.00 | 0.00 | 0.00 | 90 | 1010.0 |
| 20260506091530 | 55 | 208 | 2.0 | 7.0 | 0.00 | 0.00 | 0.00 | 89 | 1010.1 |
| 20260506091015 | 55 | 241 | 2.0 | 7.0 | 0.00 | 0.00 | 0.00 | 89 | 1010.1 |
| 20260506090514 | 55 | 210 | 1.0 | 7.0 | 0.00 | 0.00 | 0.00 | 89 | 1010.1 |
| 20260506090032 | 55 | 178 | 2.0 | 8.0 | 0.00 | 0.00 | 0.00 | 89 | 1010.2 |
| 20260506085514 | 55 | 221 | 2.0 | 8.0 | 0.00 | 0.00 | 0.00 | 89 | 1010.3 |
| 20260506085017 | 55 | 142 | 2.0 | 7.0 | 0.00 | 0.00 | 0.00 | 89 | 1010.3 |
| 20260506084530 | 55 | 218 | 1.0 | 6.0 | 0.00 | 0.00 | 0.00 | 89 | 1010.3 |
| 20260506084018 | 55 | 225 | 2.0 | 7.0 | 0.00 | 0.00 | 0.00 | 89 | 1010.3 |
| 20260506083517 | 55 | 157 | 2.0 | 8.0 | 0.00 | 0.00 | 0.00 | 89 | 1010.3 |
| 20260506083031 | 55 | 212 | 2.0 | 8.0 | 0.00 | 0.00 | 0.00 | 89 | 1010.4 |
| 20260506082516 | 55 | 111 | 2.0 | 6.0 | 0.00 | 0.00 | 0.00 | 89 | 1010.3 |
| 20260506082015 | 55 | 225 | 2.0 | 6.0 | 0.00 | 0.00 | 0.00 | 88 | 1010.4 |
| 20260506081532 | 55 | 234 | 2.0 | 6.0 | 0.00 | 0.00 | 0.00 | 88 | 1010.4 |
| 20260506081016 | 55 | 137 | 1.0 | 5.0 | 0.00 | 0.00 | 0.00 | 88 | 1010.4 |
| 20260506080516 | 55 | 0 | 1.0 | 5.0 | 0.00 | 0.00 | 0.00 | 88 | 1010.4 |
| 20260506073521 | 56 | 249 | 2.0 | 9.0 | 0.00 | 0.00 | 0.00 | 87 | 1010.3 |
| 20260506073033 | 56 | 165 | 1.0 | 6.0 | 0.00 | 0.00 | 0.00 | 87 | 1010.4 |
| 20260506072515 | 56 | 219 | 1.0 | 9.0 | 0.00 | 0.00 | 0.00 | 87 | 1010.5 |
| 20260506072016 | 56 | 225 | 2.0 | 9.0 | 0.00 | 0.00 | 0.00 | 87 | 1010.6 |
| 20260506071534 | 56 | 115 | 2.0 | 7.0 | 0.00 | 0.00 | 0.00 | 87 | 1010.7 |
| 20260506071017 | 56 | 153 | 1.0 | 7.0 | 0.00 | 0.00 | 0.00 | 87 | 1010.7 |
| 20260506070515 | 56 | 234 | 2.0 | 7.0 | 0.00 | 0.00 | 0.00 | 86 | 1010.6 |
| 20260506062516 | 57 | 0 | 3.0 | 7.0 | 0.00 | 0.00 | 0.00 | 85 | 1010.7 |
| 20260506062018 | 57 | 225 | 2.0 | 7.0 | 0.00 | 0.00 | 0.00 | 84 | 1010.6 |
| 20260506061537 | 57 | 207 | 2.0 | 7.0 | 0.00 | 0.00 | 0.00 | 84 | 1010.7 |
| 20260506061017 | 57 | 234 | 2.0 | 7.0 | 0.00 | 0.00 | 0.00 | 84 | 1010.6 |
| 20260506060516 | 57 | 165 | 1.0 | 6.0 | 0.00 | 0.00 | 0.00 | 84 | 1010.5 |
| 20260506051016 | 58 | 148 | 2.0 | 6.0 | 0.00 | 0.00 | 0.00 | 82 | 1011.0 |
| 20260506050516 | 58 | 137 | 1.0 | 6.0 | 0.00 | 0.00 | 0.00 | 81 | 1011.1 |
| 20260506045016 | 58 | 51 | 1.0 | 5.0 | 0.00 | 0.00 | 0.00 | 79 | 1011.2 |
| 20260506044530 | 59 | 110 | 1.0 | 4.0 | 0.00 | 0.00 | 0.00 | 79 | 1011.2 |
| 20260506044020 | 59 | 132 | 2.0 | 4.0 | 0.00 | 0.00 | 0.00 | 78 | 1011.2 |
| 20260506043514 | 59 | 158 | 1.0 | 6.0 | 0.00 | 0.00 | 0.00 | 78 | 1011.3 |
| 20260506043030 | 59 | 212 | 1.0 | 6.0 | 0.00 | 0.00 | 0.00 | 77 | 1011.2 |
| 20260506042514 | 59 | 68 | 1.0 | 6.0 | 0.00 | 0.00 | 0.00 | 77 | 1011.2 |
| 20260506042017 | 59 | 137 | 0.0 | 4.0 | 0.00 | 0.00 | 0.00 | 76 | 1011.3 |
| 20260506041537 | 60 | 168 | 1.0 | 4.0 | 0.00 | 0.00 | 0.00 | 76 | 1011.2 |
| 20260506041015 | 60 | 0 | 1.0 | 4.0 | 0.00 | 0.00 | 0.00 | 75 | 1011.2 |
| 20260506040519 | 60 | 67 | 1.0 | 4.0 | 0.00 | 0.00 | 0.00 | 75 | 1011.1 |
| 20260506040035 | 60 | 178 | 1.0 | 4.0 | 0.00 | 0.00 | 0.00 | 74 | 1011.1 |
| 20260506035516 | 61 | 236 | 1.0 | 5.0 | 0.00 | 0.00 | 0.00 | 73 | 1011.2 |
| 20260506035016 | 61 | 108 | 1.0 | 5.0 | 0.00 | 0.00 | 0.00 | 73 | 1011.3 |
| 20260506034530 | 61 | 142 | 0.0 | 5.0 | 0.00 | 0.00 | 0.00 | 72 | 1011.3 |
| 20260506034014 | 62 | 165 | 1.0 | 6.0 | 0.00 | 0.00 | 0.00 | 72 | 1011.4 |
| 20260506033514 | 62 | 162 | 1.0 | 6.0 | 0.00 | 0.00 | 0.00 | 71 | 1011.3 |
| 20260506033032 | 62 | 175 | 2.0 | 6.0 | 0.00 | 0.00 | 0.00 | 70 | 1011.2 |
| 20260506032516 | 63 | 226 | 2.0 | 7.0 | 0.00 | 0.00 | 0.00 | 70 | 1011.1 |
| 20260506032016 | 63 | 175 | 2.0 | 7.0 | 0.00 | 0.00 | 0.00 | 70 | 1011.1 |
| 20260506031538 | 63 | 137 | 2.0 | 7.0 | 0.00 | 0.00 | 0.00 | 70 | 1010.9 |
| 20260506031016 | 63 | 201 | 1.0 | 7.0 | 0.00 | 0.00 | 0.00 | 69 | 1010.9 |
| 20260506030518 | 63 | 228 | 3.0 | 7.0 | 0.00 | 0.00 | 0.00 | 69 | 1010.9 |
| 20260506030036 | 63 | 173 | 2.0 | 7.0 | 0.00 | 0.00 | 0.00 | 69 | 1010.9 |
| 20260506025514 | 63 | 234 | 2.0 | 6.0 | 0.00 | 0.00 | 0.00 | 69 | 1011.1 |
| 20260506025016 | 64 | 93 | 3.0 | 12.0 | 0.00 | 0.00 | 0.00 | 68 | 1011.0 |
| 20260506024542 | 64 | 219 | 3.0 | 12.0 | 0.00 | 0.00 | 0.00 | 68 | 1011.0 |
| 20260506024014 | 64 | 182 | 5.0 | 12.0 | 0.00 | 0.00 | 0.00 | 67 | 1011.0 |
| 20260506023514 | 64 | 205 | 3.0 | 12.0 | 0.00 | 0.00 | 0.00 | 67 | 1011.1 |
| 20260506023032 | 65 | 214 | 3.0 | 12.0 | 0.00 | 0.00 | 0.00 | 66 | 1011.1 |
| 20260506022514 | 65 | 250 | 4.0 | 10.0 | 0.00 | 0.00 | 0.00 | 66 | 1011.1 |
| 20260506022016 | 65 | 178 | 4.0 | 12.0 | 0.00 | 0.00 | 0.00 | 66 | 1011.0 |
| 20260506021530 | 65 | 167 | 4.0 | 13.0 | 0.00 | 0.00 | 0.00 | 66 | 1011.0 |
| 20260506021015 | 65 | 203 | 6.0 | 13.0 | 0.00 | 0.00 | 0.00 | 66 | 1010.9 |
| 20260506020515 | 65 | 201 | 4.0 | 12.0 | 0.00 | 0.00 | 0.00 | 66 | 1011.0 |
| 20260506020032 | 65 | 225 | 5.0 | 12.0 | 0.00 | 0.00 | 0.00 | 66 | 1010.9 |
| 20260506015517 | 65 | 223 | 5.0 | 15.0 | 0.00 | 0.00 | 0.00 | 66 | 1010.8 |
| 20260506015016 | 65 | 213 | 6.0 | 15.0 | 0.00 | 0.00 | 0.00 | 66 | 1010.8 |
| 20260506014530 | 65 | 171 | 6.0 | 14.0 | 0.00 | 0.00 | 0.00 | 66 | 1010.9 |
| 20260506014015 | 65 | 226 | 6.0 | 14.0 | 0.00 | 0.00 | 0.00 | 66 | 1010.6 |
| 20260506013515 | 65 | 234 | 4.0 | 14.0 | 0.00 | 0.00 | 0.00 | 66 | 1010.7 |
| 20260506013033 | 65 | 221 | 6.0 | 15.0 | 0.00 | 0.00 | 0.00 | 66 | 1010.6 |
| 20260506012515 | 65 | 221 | 6.0 | 15.0 | 0.00 | 0.00 | 0.00 | 66 | 1010.6 |
| 20260506012017 | 65 | 175 | 5.0 | 14.0 | 0.00 | 0.00 | 0.00 | 66 | 1010.6 |
| 20260506011557 | 65 | 250 | 6.0 | 14.0 | 0.00 | 0.00 | 0.00 | 66 | 1010.6 |
| 20260506011016 | 65 | 257 | 5.0 | 14.0 | 0.00 | 0.00 | 0.00 | 66 | 1010.5 |
| 20260506010514 | 65 | 187 | 7.0 | 14.0 | 0.00 | 0.00 | 0.00 | 66 | 1010.4 |
| 20260506010031 | 65 | 119 | 8.0 | 13.0 | 0.00 | 0.00 | 0.00 | 66 | 1010.1 |
| 20260506005516 | 65 | 184 | 5.0 | 12.0 | 0.00 | 0.00 | 0.00 | 67 | 1010.2 |
| 20260506005015 | 65 | 265 | 4.0 | 15.0 | 0.00 | 0.00 | 0.00 | 67 | 1010.1 |
| 20260506004533 | 65 | 175 | 6.0 | 15.0 | 0.00 | 0.00 | 0.00 | 67 | 1010.0 |
| 20260506004017 | 64 | 190 | 5.0 | 14.0 | 0.00 | 0.00 | 0.00 | 67 | 1010.0 |
| 20260506003516 | 64 | 277 | 5.0 | 14.0 | 0.00 | 0.00 | 0.00 | 67 | 1009.9 |
| 20260506003030 | 64 | 240 | 4.0 | 14.0 | 0.00 | 0.00 | 0.00 | 67 | 1010.0 |
| 20260506002518 | 64 | 221 | 4.0 | 12.0 | 0.00 | 0.00 | 0.00 | 67 | 1009.7 |
| 20260506002016 | 64 | 218 | 4.0 | 12.0 | 0.00 | 0.00 | 0.00 | 67 | 1009.7 |
| 20260506001532 | 65 | 282 | 3.0 | 8.0 | 0.00 | 0.00 | 0.00 | 66 | 1009.7 |
| 20260506001014 | 65 | 138 | 2.0 | 8.0 | 0.00 | 0.00 | 0.00 | 66 | 1009.7 |
| 20260506000521 | 65 | 219 | 3.0 | 8.0 | 0.00 | 0.00 | 0.00 | 66 | 1009.7 |
| 20260505235514 | 66 | 265 | 2.0 | 8.0 | 0.00 | 0.00 | 0.00 | 65 | 1009.6 |
| 20260505235016 | 66 | 238 | 3.0 | 8.0 | 0.00 | 0.00 | 0.00 | 65 | 1009.6 |
| 20260505234541 | 66 | 205 | 2.0 | 8.0 | 0.00 | 0.00 | 0.00 | 64 | 1009.6 |
| 20260505234016 | 66 | 225 | 3.0 | 8.0 | 0.00 | 0.00 | 0.00 | 64 | 1009.6 |
| 20260505233516 | 67 | 211 | 3.0 | 9.0 | 0.00 | 0.00 | 0.00 | 63 | 1009.4 |
| 20260505233033 | 67 | 175 | 3.0 | 17.0 | 0.00 | 0.00 | 0.00 | 63 | 1009.2 |
| 20260505232514 | 67 | 184 | 5.0 | 17.0 | 0.00 | 0.00 | 0.00 | 62 | 1009.1 |
| 20260505232016 | 67 | 149 | 5.0 | 14.0 | 0.00 | 0.00 | 0.00 | 62 | 1009.1 |
| 20260505231533 | 68 | 237 | 5.0 | 11.0 | 0.00 | 0.00 | 0.00 | 62 | 1009.1 |
| 20260505231016 | 68 | 228 | 4.0 | 11.0 | 0.00 | 0.00 | 0.00 | 62 | 1009.0 |
| 20260505230514 | 68 | 196 | 6.0 | 12.0 | 0.00 | 0.00 | 0.00 | 61 | 1008.9 |
| 20260505230050 | 68 | 165 | 5.0 | 14.0 | 0.00 | 0.00 | 0.00 | 61 | 1008.9 |
| 20260505225520 | 69 | 0 | 5.0 | 15.0 | 0.00 | 0.00 | 0.00 | 61 | 1008.9 |
| 20260505225016 | 69 | 192 | 5.0 | 15.0 | 0.00 | 0.00 | 0.00 | 60 | 1008.9 |
| 20260505224540 | 69 | 138 | 4.0 | 11.0 | 0.00 | 0.00 | 0.00 | 60 | 1008.8 |
| 20260505224015 | 69 | 214 | 5.0 | 12.0 | 0.00 | 0.00 | 0.00 | 59 | 1008.8 |
| 20260505223514 | 69 | 139 | 4.0 | 14.0 | 0.00 | 0.00 | 0.00 | 60 | 1008.9 |
| 20260505223029 | 69 | 195 | 5.0 | 14.0 | 0.00 | 0.00 | 0.00 | 59 | 1008.8 |
| 20260505222519 | 69 | 200 | 4.0 | 14.0 | 0.00 | 0.00 | 0.00 | 59 | 1008.8 |
| 20260505222015 | 70 | 229 | 5.0 | 13.0 | 0.00 | 0.00 | 0.00 | 58 | 1008.8 |
| 20260505221532 | 70 | 229 | 4.0 | 16.0 | 0.00 | 0.00 | 0.00 | 58 | 1008.9 |
| 20260505221017 | 70 | 265 | 6.0 | 16.0 | 0.00 | 0.00 | 0.00 | 57 | 1008.9 |
| 20260505220514 | 70 | 213 | 5.0 | 12.0 | 0.00 | 0.00 | 0.00 | 56 | 1008.8 |
| 20260505220031 | 71 | 242 | 5.0 | 15.0 | 0.00 | 0.00 | 0.00 | 56 | 1008.7 |
| 20260505215516 | 71 | 225 | 5.0 | 18.0 | 0.00 | 0.00 | 0.00 | 56 | 1008.6 |
| 20260505215015 | 71 | 225 | 6.0 | 18.0 | 0.00 | 0.00 | 0.00 | 56 | 1008.6 |
| 20260505214532 | 71 | 200 | 6.0 | 17.0 | 0.00 | 0.00 | 0.00 | 55 | 1008.6 |
| 20260505214016 | 72 | 226 | 5.0 | 14.0 | 0.00 | 0.00 | 0.00 | 55 | 1008.6 |
| 20260505213515 | 72 | 68 | 6.0 | 15.0 | 0.00 | 0.00 | 0.00 | 55 | 1008.5 |
| 20260505213034 | 72 | 219 | 7.0 | 15.0 | 0.00 | 0.00 | 0.00 | 54 | 1008.7 |
| 20260505212515 | 73 | 228 | 5.0 | 14.0 | 0.00 | 0.00 | 0.00 | 53 | 1008.7 |
| 20260505212018 | 73 | 182 | 5.0 | 14.0 | 0.00 | 0.00 | 0.00 | 54 | 1008.7 |
| 20260505211533 | 73 | 193 | 5.0 | 15.0 | 0.00 | 0.00 | 0.00 | 54 | 1008.5 |
| 20260505211017 | 73 | 121 | 6.0 | 15.0 | 0.00 | 0.00 | 0.00 | 54 | 1008.4 |
| 20260505210517 | 73 | 187 | 6.0 | 15.0 | 0.00 | 0.00 | 0.00 | 54 | 1008.3 |
| 20260505210031 | 73 | 117 | 7.0 | 15.0 | 0.00 | 0.00 | 0.00 | 53 | 1008.2 |
| 20260505205515 | 74 | 141 | 6.0 | 16.0 | 0.00 | 0.00 | 0.00 | 54 | 1008.3 |
| 20260505205013 | 74 | 188 | 7.0 | 16.0 | 0.00 | 0.00 | 0.00 | 53 | 1008.4 |
| 20260505204544 | 74 | 126 | 5.0 | 14.0 | 0.00 | 0.00 | 0.00 | 53 | 1008.5 |
| 20260505204014 | 74 | 175 | 5.0 | 18.0 | 0.00 | 0.00 | 0.00 | 54 | 1008.6 |
| 20260505203516 | 74 | 236 | 5.0 | 18.0 | 0.00 | 0.00 | 0.00 | 54 | 1008.7 |
| 20260505203034 | 74 | 200 | 6.0 | 17.0 | 0.00 | 0.00 | 0.00 | 54 | 1008.9 |
| 20260505202516 | 73 | 232 | 7.0 | 19.0 | 0.00 | 0.00 | 0.00 | 54 | 1008.8 |
| 20260505202014 | 73 | 247 | 7.0 | 19.0 | 0.00 | 0.00 | 0.00 | 54 | 1008.9 |
| 20260505201531 | 73 | 144 | 8.0 | 16.0 | 0.00 | 0.00 | 0.00 | 53 | 1009.0 |
| 20260505201016 | 73 | 146 | 7.0 | 17.0 | 0.00 | 0.00 | 0.00 | 54 | 1008.9 |
| 20260505200516 | 73 | 177 | 7.0 | 21.0 | 0.00 | 0.00 | 0.00 | 54 | 1008.9 |
| 20260505200030 | 74 | 158 | 9.0 | 21.0 | 0.00 | 0.00 | 0.00 | 54 | 1008.9 |
| 20260505195514 | 74 | 238 | 9.0 | 19.0 | 0.00 | 0.00 | 0.00 | 53 | 1009.0 |
| 20260505195014 | 74 | 168 | 8.0 | 19.0 | 0.00 | 0.00 | 0.00 | 54 | 1009.0 |
| 20260505194541 | 74 | 247 | 8.0 | 19.0 | 0.00 | 0.00 | 0.00 | 53 | 1009.2 |
| 20260505194014 | 74 | 192 | 10.0 | 18.0 | 0.00 | 0.00 | 0.00 | 53 | 1009.3 |
| 20260505193514 | 74 | 194 | 8.0 | 16.0 | 0.00 | 0.00 | 0.00 | 54 | 1009.4 |
| 20260505193034 | 74 | 202 | 6.0 | 18.0 | 0.00 | 0.00 | 0.00 | 54 | 1009.3 |
| 20260505192516 | 74 | 234 | 7.0 | 20.0 | 0.00 | 0.00 | 0.00 | 54 | 1009.4 |
| 20260505192016 | 74 | 171 | 5.0 | 20.0 | 0.00 | 0.00 | 0.00 | 56 | 1009.4 |
| 20260505191530 | 74 | 194 | 7.0 | 20.0 | 0.00 | 0.00 | 0.00 | 55 | 1009.5 |
| 20260505191017 | 74 | 211 | 7.0 | 20.0 | 0.00 | 0.00 | 0.00 | 55 | 1009.5 |
| 20260505190518 | 74 | 196 | 8.0 | 20.0 | 0.00 | 0.00 | 0.00 | 53 | 1009.7 |
| 20260505190037 | 74 | 165 | 6.0 | 17.0 | 0.00 | 0.00 | 0.00 | 54 | 1009.8 |
| 20260505185516 | 74 | 196 | 8.0 | 18.0 | 0.00 | 0.00 | 0.00 | 53 | 1009.8 |
| 20260505185014 | 75 | 208 | 9.0 | 18.0 | 0.00 | 0.00 | 0.00 | 52 | 1009.9 |
| 20260505184533 | 75 | 182 | 7.0 | 16.0 | 0.00 | 0.00 | 0.00 | 52 | 1009.9 |
| 20260505184017 | 75 | 221 | 9.0 | 16.0 | 0.00 | 0.00 | 0.00 | 52 | 1010.1 |
| 20260505183516 | 75 | 149 | 6.0 | 20.0 | 0.00 | 0.00 | 0.00 | 51 | 1010.1 |
| 20260505183034 | 76 | 219 | 7.0 | 20.0 | 0.00 | 0.00 | 0.00 | 50 | 1010.1 |
| 20260505182515 | 76 | 153 | 10.0 | 19.0 | 0.00 | 0.00 | 0.00 | 49 | 1010.1 |
| 20260505182014 | 76 | 115 | 6.0 | 17.0 | 0.00 | 0.00 | 0.00 | 50 | 1010.1 |
| 20260505181536 | 76 | 211 | 6.0 | 17.0 | 0.00 | 0.00 | 0.00 | 49 | 1010.0 |
| 20260505181015 | 76 | 212 | 8.0 | 21.0 | 0.00 | 0.00 | 0.00 | 50 | 1010.1 |
| 20260505180515 | 77 | 212 | 7.0 | 21.0 | 0.00 | 0.00 | 0.00 | 49 | 1010.1 |
| 20260505180043 | 77 | 208 | 7.0 | 21.0 | 0.00 | 0.00 | 0.00 | 48 | 1010.2 |
| 20260505175515 | 77 | 216 | 9.0 | 19.0 | 0.00 | 0.00 | 0.00 | 46 | 1010.1 |
| 20260505175016 | 77 | 190 | 6.0 | 17.0 | 0.00 | 0.00 | 0.00 | 47 | 1010.2 |
| 20260505174536 | 77 | 205 | 6.0 | 20.0 | 0.00 | 0.00 | 0.00 | 49 | 1010.3 |
| 20260505174015 | 76 | 209 | 7.0 | 20.0 | 0.00 | 0.00 | 0.00 | 47 | 1010.3 |
| 20260505173514 | 76 | 162 | 8.0 | 16.0 | 0.00 | 0.00 | 0.00 | 47 | 1010.3 |
| 20260505173031 | 76 | 213 | 7.0 | 14.0 | 0.00 | 0.00 | 0.00 | 49 | 1010.4 |
| 20260505172514 | 76 | 198 | 6.0 | 15.0 | 0.00 | 0.00 | 0.00 | 48 | 1010.4 |
| 20260505172014 | 76 | 187 | 7.0 | 15.0 | 0.00 | 0.00 | 0.00 | 49 | 1010.4 |
| 20260505171529 | 75 | 217 | 8.0 | 13.0 | 0.00 | 0.00 | 0.00 | 50 | 1010.5 |
| 20260505171016 | 75 | 126 | 6.0 | 15.0 | 0.00 | 0.00 | 0.00 | 50 | 1010.5 |
| 20260505170518 | 75 | 210 | 6.0 | 21.0 | 0.00 | 0.00 | 0.00 | 51 | 1010.6 |
| 20260505170032 | 75 | 219 | 5.0 | 21.0 | 0.00 | 0.00 | 0.00 | 54 | 1010.8 |
| 20260505165515 | 75 | 0 | 7.0 | 21.0 | 0.00 | 0.00 | 0.00 | 51 | 1010.9 |
| 20260505165015 | 76 | 208 | 6.0 | 13.0 | 0.00 | 0.00 | 0.00 | 51 | 1011.0 |
| 20260505164534 | 76 | 190 | 5.0 | 15.0 | 0.00 | 0.00 | 0.00 | 51 | 1011.0 |
| 20260505164016 | 76 | 198 | 6.0 | 17.0 | 0.00 | 0.00 | 0.00 | 50 | 1011.1 |
| 20260505163519 | 76 | 208 | 7.0 | 17.0 | 0.00 | 0.00 | 0.00 | 48 | 1011.4 |
| 20260505163033 | 76 | 207 | 7.0 | 12.0 | 0.00 | 0.00 | 0.00 | 49 | 1011.4 |
| 20260505162515 | 76 | 150 | 3.0 | 10.0 | 0.00 | 0.00 | 0.00 | 49 | 1011.5 |
| 20260505162019 | 76 | 227 | 5.0 | 10.0 | 0.00 | 0.00 | 0.00 | 48 | 1011.4 |
| 20260505161532 | 76 | 238 | 6.0 | 11.0 | 0.00 | 0.00 | 0.00 | 47 | 1011.5 |
| 20260505161016 | 76 | 282 | 3.0 | 11.0 | 0.00 | 0.00 | 0.00 | 48 | 1011.6 |
| 20260505160517 | 75 | 218 | 6.0 | 17.0 | 0.00 | 0.00 | 0.00 | 48 | 1011.7 |
| 20260505153031 | 74 | 213 | 4.0 | 11.0 | 0.00 | 0.00 | 0.00 | 53 | 1012.2 |
| 20260505152518 | 74 | 205 | 5.0 | 14.0 | 0.00 | 0.00 | 0.00 | 49 | 1012.3 |
| 20260505152017 | 73 | 297 | 4.0 | 14.0 | 0.00 | 0.00 | 0.00 | 50 | 1012.3 |
| 20260505151534 | 73 | 159 | 6.0 | 14.0 | 0.00 | 0.00 | 0.00 | 51 | 1012.3 |
| 20260505151019 | 73 | 249 | 5.0 | 14.0 | 0.00 | 0.00 | 0.00 | 54 | 1012.3 |
| 20260505150516 | 72 | 175 | 5.0 | 16.0 | 0.00 | 0.00 | 0.00 | 52 | 1012.5 |
| 20260505140514 | 68 | 194 | 4.0 | 12.0 | 0.00 | 0.00 | 0.00 | 62 | 1012.7 |
| 20260505125016 | 62 | 221 | 2.0 | 8.0 | 0.00 | 0.00 | 0.00 | 74 | 1011.9 |
| 20260505124541 | 61 | 254 | 3.0 | 7.0 | 0.00 | 0.00 | 0.00 | 75 | 1011.7 |
| 20260505124016 | 60 | 190 | 2.0 | 7.0 | 0.00 | 0.00 | 0.00 | 78 | 1011.7 |
| 20260505123516 | 59 | 207 | 2.0 | 7.0 | 0.00 | 0.00 | 0.00 | 78 | 1011.8 |
| 20260505123030 | 59 | 137 | 3.0 | 7.0 | 0.00 | 0.00 | 0.00 | 81 | 1011.6 |
| 20260505122516 | 58 | 159 | 3.0 | 8.0 | 0.00 | 0.00 | 0.00 | 81 | 1011.6 |
| 20260505122014 | 58 | 225 | 2.0 | 8.0 | 0.00 | 0.00 | 0.00 | 82 | 1011.5 |
| 20260505121554 | 57 | 126 | 0.0 | 5.0 | 0.00 | 0.00 | 0.00 | 83 | 1011.3 |
| 20260505121018 | 57 | 61 | 2.0 | 6.0 | 0.00 | 0.00 | 0.00 | 83 | 1011.3 |
| 20260505120514 | 57 | 344 | 1.0 | 7.0 | 0.00 | 0.00 | 0.00 | 83 | 1011.6 |
| 20260505120030 | 57 | 168 | 3.0 | 7.0 | 0.00 | 0.00 | 0.00 | 83 | 1011.5 |
| 20260505115512 | 57 | 183 | 2.0 | 8.0 | 0.00 | 0.00 | 0.00 | 84 | 1011.7 |
| 20260505115014 | 57 | 316 | 1.0 | 8.0 | 0.00 | 0.00 | 0.00 | 82 | 1011.3 |
| 20260505114533 | 57 | 155 | 2.0 | 8.0 | 0.00 | 0.00 | 0.00 | 82 | 1011.5 |
| 20260505114016 | 57 | 298 | 3.0 | 8.0 | 0.00 | 0.00 | 0.00 | 81 | 1011.5 |
| 20260505113516 | 57 | 333 | 1.0 | 4.0 | 0.00 | 0.00 | 0.00 | 82 | 1012.0 |
| 20260505113031 | 56 | 229 | 1.0 | 4.0 | 0.00 | 0.00 | 0.00 | 84 | 1011.9 |
| 20260505112514 | 56 | 178 | 1.0 | 5.0 | 0.00 | 0.00 | 0.00 | 85 | 1011.9 |
| 20260505112014 | 55 | 205 | 1.0 | 5.0 | 0.00 | 0.00 | 0.00 | 87 | 1011.9 |
| 20260505111538 | 54 | 173 | 2.0 | 5.0 | 0.00 | 0.00 | 0.00 | 89 | 1011.9 |
| 20260505111016 | 53 | 255 | 1.0 | 5.0 | 0.00 | 0.00 | 0.00 | 92 | 1011.7 |
| 20260505110515 | 52 | 171 | 1.0 | 5.0 | 0.00 | 0.00 | 0.00 | 92 | 1011.8 |
| 20260505102014 | 49 | 0 | 0.0 | 2.0 | 0.00 | 0.00 | 0.00 | 92 | 1011.0 |
| 20260505101540 | 49 | 61 | 0.0 | 2.0 | 0.00 | 0.00 | 0.00 | 92 | 1010.8 |
| 20260505101014 | 49 | 0 | 0.0 | 2.0 | 0.00 | 0.00 | 0.00 | 92 | 1010.8 |
| 20260505100516 | 49 | 51 | 0.0 | 2.0 | 0.00 | 0.00 | 0.00 | 92 | 1010.5 |
| 20260505100041 | 49 | 316 | 0.0 | 2.0 | 0.00 | 0.00 | 0.00 | 92 | 1010.6 |